Location: Unspecified
(44.0220°N, 0.0000°E)
Time: 00:17:41
(UTC+00:00)

SL-16 DEB - Visible Passes

Search period start: 05 April 2026 00:00
Search period end: 15 April 2026 00:00
Orbit: 763 x 905 km, 70.9° (Epoch: 28 March)

Date Brightness Start Highest point End Pass type
(mag) Time Alt. Az. Time Alt. Az. Time Alt. Az.
5 Apr ? 01:10:58 10° NNW 01:13:23 25° N 01:13:23 25° N visible
6 Apr ? 00:53:35 10° NNW 00:55:59 24° N 00:55:59 24° N visible
7 Apr ? 00:36:13 10° N 00:38:37 24° N 00:38:37 24° N visible
7 Apr ? 02:20:07 10° NW 02:20:15 11° NW 02:20:15 11° NW visible
8 Apr ? 00:18:50 10° N 00:21:19 23° NNE 00:21:19 23° NNE visible
8 Apr ? 02:02:35 10° NW 02:02:55 12° NW 02:02:55 12° NW visible
9 Apr ? 00:01:27 10° N 00:04:01 23° NNE 00:04:01 23° NNE visible
9 Apr ? 01:45:04 10° NW 01:45:39 13° NW 01:45:39 13° NW visible
9 Apr ? 23:44:03 10° N 23:46:46 23° NNE 23:46:46 23° NNE visible
10 Apr ? 01:27:33 10° NW 01:28:23 14° NW 01:28:23 14° NW visible
10 Apr ? 23:26:41 10° N 23:29:31 22° NNE 23:29:31 22° NNE visible
11 Apr ? 01:10:03 10° NW 01:11:09 16° NW 01:11:09 16° NW visible
11 Apr ? 23:09:18 10° N 23:12:18 22° NNE 23:12:18 22° NNE visible
12 Apr ? 00:52:32 10° NNW 00:53:55 18° NW 00:53:55 18° NW visible
12 Apr ? 22:51:55 10° N 22:55:05 21° NE 22:55:05 21° NE visible
13 Apr ? 00:35:01 10° NNW 00:36:43 21° NW 00:36:43 21° NW visible
13 Apr ? 22:34:33 10° N 22:37:54 20° NE 22:37:54 20° NE visible
14 Apr ? 00:17:31 10° NNW 00:19:32 24° NW 00:19:32 24° NW visible
14 Apr ? 22:17:10 10° N 22:20:43 19° NE 22:20:43 19° NE visible
